Regional Weather Roundup
Issued by NWS Charleston, SC

Current Version | Previous Version | Graphics & Text | Print | Product List | Glossary On
Versions: 1 2 3 4 5 6 7 8 9 10 11 12 13 14 15 16 17 18 19 20 21 22 23 24 25 26 27 28 29 30 31 32 33 34 35 36 37 38 39 40 41 42 43 44 45 46 47 48 49 50
318
ASUS42 KCHS 221711
RWRCHS

REGIONAL WEATHER ROUNDUP
NATIONAL WEATHER SERVICE CHARLESTON SC
1200 PM EST WED FEB 22 2017

NOTE: "FAIR" INDICATES FEW OR NO CLOUDS BELOW 12,000 FEET WITH NO
SIGNIFICANT WEATHER AND/OR OBSTRUCTIONS TO VISIBILITY.

NOT ALL STATIONS ARE QUALITY CONTROLLED. USE DATA WITH CAUTION...
ESPECIALLY DEWPOINT OBSERVATIONS.

SCZ027-030-031-034>040-042>050-221800-
...SOUTHEAST SOUTH CAROLINA...

CITY           SKY/WX    TMP DP  RH WIND       PRES   REMARKS
N CHARLESTON   PTSUNNY   75  55  49 SE21      29.93F
WATERFRONT PRK   N/A     65  60  84 E9        29.93R
MOUNT PLEASANT FAIR      73  61  64 E10G16    29.94F
JOHNS ISLAND   CLOUDY    72  61  68 E16G22    29.93F
PINOPOLIS        N/A     73  57  56 S7        29.86F
MONCKS CORNER  FAIR      73  50  43 SE8G17    29.93F
SUMMERVILLE    FAIR      73  54  49 E12G17    29.94F
BEAUFORT MCAS  CLOUDY    71  62  73 E14G23    29.91F
BEAUFORT ARPT  PTSUNNY   70  61  73 E10G18    29.90F
HILTON HEAD IS PTSUNNY   68  63  83 E9        29.91F
WALTERBORO     CLOUDY    72  57  60 E8        29.93F
ALLENDALE      CLOUDY    72  59  64 E9G17     29.91F

...SOUTHERN MIDLANDS AND PEE DEE...

CITY           SKY/WX    TMP DP  RH WIND       PRES   REMARKS
GEORGETOWN     FAIR      70  55  60 E10G16    29.97F
KINGSTREE      FAIR      72  50  46 SE14      29.95F
ORANGEBURG     CLOUDY    68  58  70 E5        29.94S
BARNWELL         N/A     72  61  68 SE12      29.93S
AIKEN          PTSUNNY   68  55  64 E7        29.97F
MANNING        PTSUNNY  N/A N/A N/A MISG      29.94F
COLUMBIA       CLOUDY    70  56  61 E6        29.94F
SUMTER         DRIZZLE   75  54  46 S8        29.93F
FLORENCE       MOSUNNY   74  51  44 S12       29.95F
MYRTLE BEACH   SUNNY     70  57  64 E12       29.98S
N MYRTLE BEACH SUNNY     69  54  58 SE13      29.97F

$$

GAZ063-065-086>088-099>101-113>116-118-119-134>141-150-221800-
...SOUTHEAST GEORGIA...

CITY           SKY/WX    TMP DP  RH WIND       PRES   REMARKS
SAVANNAH ARPT  LGT RAIN  66  61  82 E14       29.89F
HUNTER AAF     RAIN      64  64 100 E7        29.87F FOG
FORT STEWART   LGT RAIN  65  63  93 E7        29.86F
STATESBORO     CLOUDY    69  64  84 E6        29.89F
SYLVANIA       CLOUDY   N/A N/A N/A E13G23    29.91S
CLAXTON        LGT RAIN N/A N/A N/A CALM      29.89F

...CSRA...CENTRAL AND FAR SOUTHEAST GEORGIA...

CITY           SKY/WX    TMP DP  RH WIND       PRES   REMARKS
THOMSON        PTSUNNY   70  62  73 CALM      29.96F
AUGUSTA-BUSH   CLOUDY    73  60  63 E8        29.91F
AUGUSTA-DANIEL CLOUDY    71  57  61 VRB5      29.93F
SWAINSBORO     CLOUDY    68  61  77 E8        29.90F
VIDALIA        CLOUDY    70  64  83 E8        29.87F
EASTMAN        CLOUDY    71  54  55 E7        29.90R
HAZLEHURST     CLOUDY    70  64  82 SE7       29.84F
ALMA           CLOUDY    69  62  78 VRB7G17   29.83F
WAYCROSS       CLOUDY    72  69  90 E10       29.82F
JESUP          CLOUDY    64  63  94 E7        29.87S
BAXLEY         CLOUDY    70  66  88 E13       29.85S
BRUNSWICK      HVY RAIN  64  64 100 NE9       29.86F
SAINT SIMONS   LGT RAIN  65  63  93 NE10      29.84F

$$

SCZ027-028-034-036>038-045-046-048>050-GAZ119-141-221800-
...LAKE AND SUPPLEMENTAL COASTAL OBSERVATIONS...

STATION/POSITION TIME  TEMP    WIND        PRES    WAVE   SWELL
                       AIR SEA DIR/SP/G            HT/PER HT/PER/DIR
                 (UTC) (F)     (DEG/KT/KT) (MB)    (FT/S) (FT/S/D)
WINYAH BAY       1545   66     110/  7     1015.0
LAKE MURRAY      1620   65     130/  6/  9 1014.2
ACE BASIN NERRS  1545   71     100/  6     1013.0
FORT PULASKI     1636   64 61  110/ 16/ 21 1012.6F
SAPELO ISLAND    1600   62      80/  6     1012.0

$$

ANZ835-935-AMZ111-154-330-350-352-354-370-450-454-472-221800-
...C-MAN AND BUOY OBSERVATIONS...

STATION/POSITION TIME  TEMP    WIND        PRES    WAVE   SWELL
                       AIR SEA DIR/SP/G            HT/PER HT/PER/DIR
                 (UTC) (F)     (DEG/KT/KT) (MB)    (FT/S) (FT/S/D)
BUOY 41004       1650   70 70  110/ 17/ 21 1012.9F   5/ 5   2/ 80/ 8
BUOY 41008       1650   66 62  110/ 10/ 12 1010.5F   5/ 6   5/130/ 6
FOLLY BEACH CMAN 1600   64     100/ 12/ 13 1014.5S
CAPERS NEARSHORE 1608   63 59  120/ 10/ 12 1013.9F
FRIPP NEARSHORE  1608   63 61   80/ 10/ 14 1012.8R


STATION/POSITION TIME  TEMP    WIND        PRES    WAVE   SWELL
                       AIR SEA DIR/SP/G            HT/PER HT/PER/DIR
                 (UTC) (F)     (DEG/KT/KT) (MB)    (FT/S) (FT/S/D)
5E ST. MARYS GA  1630      63                N/A     4/ 6
FRYING PAN BUOY  1650   69 68  130/ 16/ 19 1015.0F   4/ 8   2/ 70/ 8
BUOY 41025       1650   67 74  140/ 10/ 12 1016.7F   3/10   3/ 60/10
CAPE LOOKOUT NC  1600   64     100/  6/  6 1016.4F
BUOY 41002       1650   64 70  100/ 14/ 17 1016.4F   5/10   3/ 40/10
BUOY 41010       NOT AVBL
ST AUGUSTINE FL  1700   69 68  170/ 12/ 13 1009.7F


$$




USA.gov is the U.S. government's official web portal to all federal, state and local government web resources and services.